When you browse on this site, cookies collect data to enhance your experience and personalize the content and advertising you see.
Visit our Privacy Policy to learn more. By continuing to use the site, you agree to this use of cookies and data.
  • In Romania
  • List of Countries
  • For 7 days
  • Water Temperature
  • Satellite Maps
  • Weather Map
  • Weather Widgets
  • user-avatar
    Login

    Hourly Weather Oksford

    Today, 20 March, Wednesday

    Time Temperature Precipitation Wind Pressure Humidity
    00:00 +5°C° 0 mm 3 mps 766 mmHg 95%
    01:00 +7°C° 0 mm 3 mps 766 mmHg 95%
    02:00 +7°C° 0 mm 3 mps 766 mmHg 95%
    03:00 +7°C° 0 mm 2 mps 766 mmHg 95%
    04:00 +7°C° 0 mm 2 mps 767 mmHg 96%
    05:00 +7°C° 0 mm 2 mps 767 mmHg 96%
    06:00 +7°C° 0 mm 2 mps 767 mmHg 96%
    07:00 +8°C° 0 mm 2 mps 767 mmHg 94%
    08:00 +9°C° 0 mm 3 mps 768 mmHg 91%
    09:00 +11°C° 0 mm 3 mps 768 mmHg 89%
    10:00 +11°C° 0 mm 3 mps 768 mmHg 87%
    11:00 +12°C° 0 mm 3 mps 768 mmHg 84%
    12:00 +13°C° 0 mm 3 mps 768 mmHg 82%
    13:00 +13°C° 0 mm 3 mps 768 mmHg 82%
    14:00 +13°C° 0 mm 3 mps 768 mmHg 82%
    15:00 +13°C° 0 mm 3 mps 768 mmHg 82%
    16:00 +12°C° 0 mm 3 mps 768 mmHg 84%
    17:00 +12°C° 0 mm 3 mps 768 mmHg 87%
    18:00 +12°C° 0 mm 2 mps 768 mmHg 89%
    19:00 +12°C° 0 mm 2 mps 768 mmHg 91%
    20:00 +10°C° 0 mm 3 mps 768 mmHg 93%
    21:00 +9°C° 0 mm 3 mps 769 mmHg 94%
    22:00 +9°C° 0 mm 3 mps 769 mmHg 95%
    23:00 +8°C° 0 mm 3 mps 769 mmHg 96%

    Tomorrow, 21 March, Thursday

    Time Temperature Precipitation Wind Pressure Humidity
    00:00 +7°C° 0 mm 2 mps 769 mmHg 96%
    01:00 +7°C° 0 mm 2 mps 769 mmHg 96%
    02:00 +7°C° 0 mm 2 mps 768 mmHg 96%
    03:00 +6°C° 0 mm 2 mps 768 mmHg 96%
    04:00 +5°C° 0 mm 3 mps 768 mmHg 96%
    05:00 +5°C° 0 mm 3 mps 768 mmHg 96%
    06:00 +5°C° 0 mm 3 mps 768 mmHg 96%
    07:00 +8°C° 0 mm 3 mps 769 mmHg 94%
    08:00 +9°C° 0 mm 3 mps 769 mmHg 92%
    09:00 +10°C° 0 mm 3 mps 769 mmHg 90%
    10:00 +11°C° 0 mm 3 mps 769 mmHg 88%
    11:00 +12°C° 0 mm 3 mps 769 mmHg 85%
    12:00 +13°C° 0 mm 3 mps 769 mmHg 83%
    13:00 +14°C° 0 mm 3 mps 769 mmHg 82%
    14:00 +14°C° 0 mm 3 mps 768 mmHg 81%
    15:00 +14°C° 0 mm 3 mps 768 mmHg 80%
    16:00 +15°C° 0 mm 2 mps 768 mmHg 84%
    17:00 +14°C° 0 mm 2 mps 767 mmHg 87%
    18:00 +13°C° 0 mm 2 mps 767 mmHg 91%
    19:00 +13°C° 0 mm 2 mps 767 mmHg 92%
    20:00 +12°C° 0 mm 2 mps 767 mmHg 92%
    21:00 +12°C° 0 mm 2 mps 767 mmHg 93%
    22:00 +12°C° 0 mm 2 mps 767 mmHg 94%
    23:00 +10°C° 0 mm 2 mps 767 mmHg 94%

    Day after tomorrow, 22 March, Friday

    Time Temperature Precipitation Wind Pressure Humidity
    00:00 +10°C° 0 mm 2 mps 767 mmHg 95%
    01:00 +9°C° 0 mm 2 mps 766 mmHg 96%
    02:00 +8°C° 0 mm 3 mps 766 mmHg 96%
    03:00 +8°C° 0 mm 3 mps 766 mmHg 97%
    04:00 +7°C° 0 mm 3 mps 765 mmHg 97%
    05:00 +7°C° 0 mm 3 mps 765 mmHg 97%
    06:00 +7°C° 0 mm 3 mps 765 mmHg 97%
    07:00 +7°C° 0 mm 4 mps 765 mmHg 92%
    08:00 +8°C° 0 mm 5 mps 765 mmHg 87%
    09:00 +10°C° 0 mm 6 mps 765 mmHg 83%
    10:00 +11°C° 0 mm 6 mps 765 mmHg 80%
    11:00 +13°C° 0 mm 6 mps 764 mmHg 77%
    12:00 +14°C° 0 mm 7 mps 764 mmHg 74%
    13:00 +14°C° 0 mm 6 mps 764 mmHg 74%
    14:00 +14°C° 0 mm 6 mps 764 mmHg 75%
    15:00 +14°C° 0 mm 6 mps 764 mmHg 75%
    16:00 +14°C° 0 mm 5 mps 764 mmHg 78%
    17:00 +13°C° 0 mm 4 mps 764 mmHg 81%
    18:00 +12°C° 0 mm 4 mps 764 mmHg 85%
    19:00 +11°C° 0 mm 3 mps 764 mmHg 87%
    20:00 +10°C° 0 mm 3 mps 765 mmHg 89%
    21:00 +8°C° 0 mm 3 mps 765 mmHg 91%
    22:00 +8°C° 0 mm 3 mps 766 mmHg 92%
    23:00 +9°C° 0 mm 2 mps 766 mmHg 93%

    23 March, Saturday

    Time Temperature Precipitation Wind Pressure Humidity
    00:00 +9°C° 0 mm 2 mps 766 mmHg 94%
    01:00 +9°C° 0 mm 2 mps 766 mmHg 92%
    02:00 +9°C° 0 mm 3 mps 767 mmHg 90%
    03:00 +9°C° 0 mm 3 mps 767 mmHg 88%
    04:00 +7°C° 0.1 mm 4 mps 767 mmHg 85%
    05:00 +7°C° 0.1 mm 4 mps 767 mmHg 82%
    06:00 +6°C° 0.1 mm 5 mps 768 mmHg 78%
    07:00 +6°C° 0 mm 5 mps 768 mmHg 77%
    08:00 +6°C° 0 mm 4 mps 768 mmHg 76%
    09:00 +6°C° 0 mm 4 mps 769 mmHg 75%
    10:00 +6°C° 0.1 mm 4 mps 769 mmHg 76%
    11:00 +6°C° 0.1 mm 4 mps 769 mmHg 76%
    12:00 +7°C° 0.1 mm 4 mps 769 mmHg 77%
    13:00 +7°C° 0.2 mm 4 mps 768 mmHg 80%
    14:00 +8°C° 0.2 mm 3 mps 768 mmHg 82%
    15:00 +8°C° 0.2 mm 3 mps 768 mmHg 85%
    16:00 +8°C° 0.1 mm 3 mps 768 mmHg 86%
    17:00 +7°C° 0.1 mm 3 mps 768 mmHg 87%
    18:00 +7°C° 0.1 mm 3 mps 768 mmHg 88%
    19:00 +7°C° 0 mm 3 mps 768 mmHg 88%
    20:00 +7°C° 0 mm 3 mps 768 mmHg 89%
    21:00 +7°C° 0 mm 3 mps 768 mmHg 89%
    22:00 +5°C° 0 mm 3 mps 768 mmHg 89%
    23:00 +5°C° 0 mm 3 mps 768 mmHg 89%

    24 March, Sunday

    Time Temperature Precipitation Wind Pressure Humidity
    00:00 +5°C° 0 mm 3 mps 768 mmHg 89%
    01:00 +6°C° 0 mm 2 mps 767 mmHg 89%
    02:00 +5°C° 0 mm 2 mps 767 mmHg 89%
    03:00 +5°C° 0 mm 2 mps 767 mmHg 88%
    04:00 +5°C° 0 mm 2 mps 767 mmHg 88%
    05:00 +4°C° 0 mm 2 mps 767 mmHg 89%
    06:00 +4°C° 0 mm 2 mps 767 mmHg 89%
    07:00 +5°C° 0 mm 2 mps 768 mmHg 84%
    08:00 +6°C° 0 mm 2 mps 768 mmHg 79%
    09:00 +8°C° 0 mm 2 mps 768 mmHg 75%
    10:00 +9°C° 0 mm 2 mps 768 mmHg 71%
    11:00 +10°C° 0 mm 2 mps 768 mmHg 68%
    12:00 +12°C° 0 mm 2 mps 768 mmHg 64%
    13:00 +11°C° 0 mm 3 mps 768 mmHg 66%
    14:00 +11°C° 0 mm 3 mps 767 mmHg 68%
    15:00 +11°C° 0 mm 3 mps 767 mmHg 70%
    16:00 +10°C° 0 mm 3 mps 767 mmHg 73%
    17:00 +9°C° 0 mm 2 mps 768 mmHg 76%
    18:00 +8°C° 0 mm 2 mps 768 mmHg 80%
    19:00 +7°C° 0 mm 2 mps 768 mmHg 80%
    20:00 +6°C° 0 mm 2 mps 769 mmHg 81%
    21:00 +4°C° 0 mm 2 mps 769 mmHg 81%
    22:00 +4°C° 0 mm 2 mps 769 mmHg 83%
    23:00 +4°C° 0 mm 2 mps 769 mmHg 84%

    25 March, Monday

    Time Temperature Precipitation Wind Pressure Humidity
    00:00 +3°C° 0 mm 2 mps 769 mmHg 85%
    01:00 +2°C° 0 mm 3 mps 769 mmHg 88%
    02:00 +2°C° 0 mm 3 mps 769 mmHg 90%
    03:00 +2°C° 0 mm 3 mps 768 mmHg 93%
    04:00 +2°C° 0 mm 3 mps 768 mmHg 93%
    05:00 +1°C° 0 mm 3 mps 769 mmHg 94%
    06:00 +1°C° 0 mm 3 mps 769 mmHg 95%
    07:00 +3°C° 0 mm 4 mps 769 mmHg 89%
    08:00 +5°C° 0 mm 4 mps 769 mmHg 83%
    09:00 +7°C° 0 mm 5 mps 770 mmHg 77%
    10:00 +8°C° 0 mm 5 mps 770 mmHg 74%
    11:00 +8°C° 0 mm 5 mps 770 mmHg 70%
    12:00 +10°C° 0 mm 4 mps 770 mmHg 67%
    13:00 +11°C° 0 mm 4 mps 770 mmHg 65%
    14:00 +11°C° 0 mm 4 mps 769 mmHg 63%
    15:00 +11°C° 0 mm 4 mps 769 mmHg 62%
    16:00 +11°C° 0 mm 3 mps 769 mmHg 67%
    17:00 +10°C° 0 mm 3 mps 770 mmHg 72%
    18:00 +9°C° 0 mm 2 mps 770 mmHg 78%
    19:00 +7°C° 0 mm 2 mps 770 mmHg 81%
    20:00 +6°C° 0 mm 2 mps 771 mmHg 85%
    21:00 +5°C° 0 mm 2 mps 771 mmHg 89%
    22:00 +4°C° 0 mm 2 mps 771 mmHg 87%
    23:00 +4°C° 0 mm 1 mps 772 mmHg 86%
    Show more